Weather History for Valparaiso, IN

Change the Weather History Date:

Monday, January 20, 2014

  Actual Average Record
Temperature  
Mean Temperature 27 °F 23 °F  
Max Temperature 36 °F 31 °F 59 °F (1999)
Min Temperature 18 °F 16 °F -4 °F (2008)
Degree Days  
Heating Degree Days 38 42  
Month to date heating degree days 779 831  
Since 1 July heating degree days 3462 3233  
Cooling Degree Days 0 0  
Month to date cooling degree days 0 0  
Year to date cooling degree days 0 0  
Moisture  
Dew Point 25 °F    
Average Humidity 82    
Maximum Humidity 92    
Minimum Humidity 74    
Precipitation  
Precipitation T in 0.05 in 0.39 in (2006)
Month to date precipitation 0.93 1.09  
Year to date precipitation 0.93 1.09  
Sea Level Pressure  
Sea Level Pressure 29.86 in    
Wind  
Wind Speed 9 mph (NNW)    
Max Wind Speed 17 mph    
Max Gust Speed 22 mph    
Visibility 10 miles    
Events Snow    
T = Trace of Precipitation, MM = Missing Value Source: NWS Daily Summary

Daily Weather History Graph

Daily Weather History Graph

Search for Another Location

Airport:

Trip Planner

Search our weather history database for the weather conditions in past years. The results will help you decide how hot, cold, wet, or windy it might be!

Date:

Astronomy

Jan. 20, 2014 Rise Set
Actual Time 7:09 AM CST 4:49 PM CST
Civil Twilight 6:39 AM CST 5:19 PM CST
Nautical Twilight 6:05 AM CST 5:53 PM CST
Astronomical Twilight 5:32 AM CST 6:26 PM CST
Moon 9:27 PM CST 9:05 AM CST
Length of Visible Light 10h 40m
Length of Day
9h 39m
Waning Gibbous, 82% of the Moon is Illuminated
Jan 20
Waning Gibbous
Jan 23
Last Quarter
Jan 30
New
Feb 6
First Quarter
Feb 14
Full

Hourly Weather History & Observations

Time (CST) Temp. Windchill Dew Point Humidity Pressure Visibility Wind Dir Wind Speed Gust Speed Precip Events Conditions
12:53 AM 35.1 °F 26.9 °F 28.0 °F 76% 29.60 in 10.0 mi WNW 11.5 mph - N/A   Clear
1:53 AM 34.0 °F 26.0 °F 28.0 °F 79% 29.64 in 10.0 mi WNW 10.4 mph - N/A   Mostly Cloudy
2:53 AM 35.1 °F 27.4 °F 28.0 °F 76% 29.68 in 10.0 mi WNW 10.4 mph 18.4 mph N/A   Overcast
3:50 AM 33.8 °F 25.8 °F 28.4 °F 81% 29.69 in 10.0 mi NW 10.4 mph - N/A   Overcast
3:53 AM 34.0 °F 25.0 °F 27.0 °F 75% 29.72 in 10.0 mi NW 12.7 mph 19.6 mph N/A   Overcast
4:50 AM 33.8 °F 24.8 °F 28.4 °F 81% 29.72 in 10.0 mi NNW 12.7 mph 19.6 mph N/A   Overcast
4:53 AM 33.1 °F 23.9 °F 28.0 °F 82% 29.75 in 10.0 mi North 12.7 mph - N/A   Overcast
5:53 AM 30.9 °F 21.2 °F 28.0 °F 89% 29.79 in 10.0 mi North 12.7 mph 17.3 mph N/A   Overcast
6:53 AM 30.9 °F 24.3 °F 28.0 °F 89% 29.82 in 10.0 mi NNW 6.9 mph - N/A   Overcast
7:07 AM 30.9 °F 24.3 °F 27.0 °F 85% 29.81 in 10.0 mi NNW 6.9 mph - N/A   Overcast
7:14 AM 30.9 °F 26.2 °F 27.0 °F 85% 29.81 in 10.0 mi NW 4.6 mph - N/A   Overcast
7:36 AM 30.0 °F 25.2 °F 27.0 °F 88% 29.82 in 10.0 mi NW 4.6 mph - N/A   Overcast
7:53 AM 30.0 °F 26.5 °F 27.0 °F 88% 29.84 in 10.0 mi NNW 3.5 mph - N/A   Overcast
8:53 AM 30.9 °F 26.2 °F 26.1 °F 82% 29.86 in 10.0 mi NNW 4.6 mph - N/A   Overcast
9:53 AM 30.9 °F 26.2 °F 25.0 °F 79% 29.89 in 10.0 mi North 4.6 mph - N/A   Overcast
10:18 AM 30.9 °F 27.5 °F 25.0 °F 79% 29.86 in 10.0 mi WSW 3.5 mph - N/A   Overcast
10:53 AM 32.0 °F 26.4 °F 26.1 °F 79% 29.89 in 10.0 mi SSW 5.8 mph - N/A   Overcast
11:53 AM 32.0 °F 24.8 °F 26.1 °F 79% 29.89 in 10.0 mi SW 8.1 mph - N/A   Overcast
12:53 PM 33.1 °F 25.5 °F 26.1 °F 75% 29.88 in 10.0 mi West 9.2 mph - N/A   Overcast
1:53 PM 33.1 °F 24.9 °F 26.1 °F 75% 29.88 in 10.0 mi WSW 10.4 mph - N/A   Partly Cloudy
2:26 PM 33.1 °F 26.1 °F 26.1 °F 75% 29.86 in 10.0 mi West 8.1 mph - N/A   Mostly Cloudy
2:45 PM 33.1 °F 25.5 °F 26.1 °F 75% 29.86 in 10.0 mi West 9.2 mph - N/A   Partly Cloudy
2:53 PM 33.1 °F 26.1 °F 26.1 °F 75% 29.88 in 10.0 mi West 8.1 mph - N/A   Partly Cloudy
3:53 PM 32.0 °F 25.6 °F 27.0 °F 82% 29.91 in 10.0 mi West 6.9 mph - N/A   Mostly Cloudy
4:41 PM 30.0 °F 23.2 °F 27.0 °F 88% 29.90 in 10.0 mi North 6.9 mph - N/A   Mostly Cloudy
4:48 PM 30.2 °F 24.3 °F 26.6 °F 86% 29.90 in 10.0 mi North 5.8 mph - N/A   Mostly Cloudy
4:53 PM 30.0 °F 24.1 °F 27.0 °F 88% 29.93 in 10.0 mi North 5.8 mph - N/A   Mostly Cloudy
5:05 PM 28.9 °F 21.1 °F 27.0 °F 92% 29.91 in 10.0 mi North 8.1 mph - N/A   Overcast
5:53 PM 27.0 °F 18.7 °F 25.0 °F 92% 29.95 in 10.0 mi NNE 8.1 mph 18.4 mph N/A   Overcast
6:32 PM 26.1 °F 16.2 °F 23.0 °F 88% 29.94 in 7.0 mi NNE 10.4 mph - 0.00 in Snow Light Snow
6:53 PM 25.0 °F 14.2 °F 21.9 °F 88% 29.98 in 9.0 mi NNE 11.5 mph - 0.00 in Snow Light Snow
7:46 PM 24.1 °F 15.2 °F 19.9 °F 84% 29.96 in 10.0 mi NNE 8.1 mph - 0.00 in   Overcast
7:53 PM 24.1 °F 13.1 °F 19.0 °F 81% 30.00 in 10.0 mi NE 11.5 mph - 0.00 in   Overcast
8:26 PM 23.0 °F 11.7 °F 17.1 °F 78% 29.97 in 10.0 mi NNE 11.5 mph 18.4 mph N/A   Overcast
8:53 PM 21.9 °F 10.4 °F 16.0 °F 78% 29.99 in 10.0 mi NNE 11.5 mph - N/A   Overcast
9:53 PM 21.0 °F 10.6 °F 14.0 °F 74% 29.99 in 10.0 mi NNE 9.2 mph - N/A   Mostly Cloudy
10:53 PM 19.0 °F 6.1 °F 12.0 °F 74% 30.01 in 10.0 mi NNE 12.7 mph 19.6 mph N/A   Overcast
11:53 PM 18.0 °F 4.8 °F 12.0 °F 78% 30.01 in 10.0 mi NNE 12.7 mph 23.0 mph N/A   Overcast